Location: Central Falls
(41.8900°N, 71.3929°W)
Time: 11:42:02
(UTC+00:00)

A-11 Canister half - Pass Details

Date: 12 December 2023
Orbit: 1512 x 1687 km, 47.2° (Epoch: 20 February)

Event Time Altitude Azimuth Distance (km) Brightness Sun altitude
Rises 03:04:53 0° 234° (SW) 4,670 - -62.8°
Reaches altitude 10° 03:07:53 10° 233° (SW) 3,705 - -63.3°
Maximum altitude 03:17:14 78° 149° (SSE) 1,607 - -64.6°
Drops below altitude 10° 03:27:00 10° 65° (ENE) 3,849 - -65.9°
Sets 03:30:10 0° 65° (ENE) 4,859 - -66.3°
